[[{"header":{"parameterUnit":"m.s-1","parameterCategory":1,"la1":30.2991,"la2":30.254,"lo1":-89.0895,"lo2":-89.0444,"dy":0.0017,"dx":0.0017,"nx":28,"ny":28,"refTime":"2025-01-07T03:00:00:Z","depth":0,"parameterNumber":2,"parameterNumberName":"U-component_of_WINDS"},"data":[0,0,0,0,0,0,0,0,0,0,0,0,0,0,0,0,0,0,0,0,0,0,0,0,0,0,0,0,0,0,0,0,0,0,0,0,0,0,0,0,0,0,0,0,0,0,0,0,0,0,0,0,0,0,0,0,0,0,1.1552,1.1551,0,1.1522,1.1521,1.1521,1.1493,1.1492,1.1492,1.1492,1.1459,1.1459,1.1458,0,0,0,0,0,0,0,0,0,0,0,0,0,1.1584,1.1584,1.1552,1.1551,1.1551,1.1522,1.1521,1.1521,1.1493,1.1492,1.1492,1.1492,1.146,1.1459,1.1458,0,0,0,0,0,0,0,0,0,0,0,0,0,1.1564,1.1584,1.1552,1.1533,1.1532,1.1522,1.1521,1.1521,1.1493,1.1492,1.1492,1.1491,1.146,1.1459,1.1458,1.1464,0,0,1.1456,1.1455,0,0,0,0,0,0,0,0,1.1565,1.1563,1.1537,1.1535,1.1533,1.151,1.1521,1.1502,1.1493,1.1508,1.1492,1.1491,1.1477,1.1475,1.147,1.1462,1.1461,1.1456,1.1455,1.1455,1.1455,0,0,0,0,0,0,0,1.1567,1.1564,1.154,1.1536,1.1534,1.1527,1.1523,1.1517,1.1495,1.1506,1.1504,1.1501,1.1476,1.1471,1.1469,1.146,1.1456,1.1455,1.1455,1.1454,1.1457,1.1457,0,0,0,0,0,0,1.1571,1.1565,1.1541,1.1539,1.1548,1.1527,1.1523,1.1518,1.1495,1.1491,1.1501,1.15,1.1472,1.147,1.1468,1.1473,1.1455,1.1454,1.1454,1.1456,1.1457,1.1457,0,0,0,0,0,0,1.1572,1.1569,1.1542,1.1552,1.1548,1.1526,1.1522,1.1518,1.1513,1.1492,1.1488,1.1501,1.1472,1.1469,1.1465,1.1472,1.1454,1.1453,1.1456,1.1456,1.1457,1.1484,0,0,0,0,0,0,1.1573,1.1569,1.1571,1.1552,1.1547,1.154,1.1522,1.1517,1.1512,1.1509,1.149,1.1486,1.1471,1.1467,1.1465,1.147,1.1452,1.1455,1.1456,1.1457,1.1482,1.1485,1.1488,0,0,0,0,0,1.1574,1.1579,1.1572,1.1569,1.1549,1.1541,1.1538,1.1521,1.1512,1.1514,1.1501,1.1487,1.1472,1.1467,1.1464,1.1469,1.1454,1.1456,1.1457,1.1481,1.1485,1.1488,0,0,0,0,0,0,1.1599,1.1576,1.1567,1.1567,1.1556,1.1536,1.1537,1.1525,1.1516,1.1514,1.1493,1.1489,1.1488,1.1478,1.1473,1.1474,1.1461,1.1462,1.148,1.1484,1.1487,1.1489,1.1452,0,0,0,0,0,1.1605,1.16,1.158,1.1582,1.1577,1.1558,1.1554,1.1542,1.153,1.1525,1.1511,1.1499,1.1492,1.1487,1.1479,1.1481,1.1477,1.1484,1.1487,1.1489,1.149,1.1491,1.1494,1.1461,1.1461,1.1461,0,0,1.1616,1.1603,1.1601,1.1587,1.1577,1.1572,1.1554,1.155,1.1547,1.1524,1.152,1.151,1.1495,1.1495,1.1494,1.1486,1.1498,1.1491,1.1493,1.1492,1.1492,1.1495,1.1498,1.1462,1.1462,1.1462,0,0,1.1634,1.1624,1.1624,1.1615,1.1601,1.1589,1.1589,1.1571,1.1564,1.156,1.1543,1.1538,1.1526,1.1517,1.151,1.1527,1.1514,1.1525,1.154,1.1541,1.1544,1.1546,1.1552,1.1554,1.1526,1.1526,1.1526,0,1.165,1.1643,1.1626,1.1623,1.1617,1.1598,1.1598,1.159,1.1574,1.157,1.1563,1.1547,1.1536,1.1534,1.1538,1.1533,1.1533,1.1527,1.1545,1.1547,1.1549,1.1554,1.1556,1.1528,1.1527,1.1527,1.1527,0,1.1663,1.1658,1.166,1.1646,1.1641,1.1639,1.1622,1.1619,1.1608,1.1597,1.1593,1.1579,1.1569,1.1567,1.1556,1.1563,1.1559,1.1549,1.1535,1.1553,1.1558,1.156,1.153,1.1529,1.1529,1.1528,0,0,1.1695,1.1672,1.1673,1.1667,1.1651,1.1647,1.1645,1.1635,1.1633,1.1623,1.1621,1.1612,1.1602,1.1595,1.1583,1.1584,1.1599,1.1573,1.1573,1.1578,1.1606,1.1614,1.1616,1.159,1.1591,1.1591,1.1607,0,1.171,1.1706,1.1691,1.1691,1.1687,1.167,1.1668,1.1658,1.1648,1.1643,1.1631,1.1625,1.1613,1.1609,1.1609,1.1597,1.1604,1.1595,1.1588,1.1588,1.1592,1.1619,1.1627,1.1643,1.1609,1.1609,1.1609,0,1.1727,1.1719,1.1719,1.1704,1.1702,1.17,1.1691,1.1686,1.1675,1.1668,1.1661,1.1648,1.1645,1.1633,1.1629,1.1624,1.162,1.1614,1.1614,1.1612,1.1599,1.1618,1.1647,1.165,1.1612,1.1612,1.1612,0,1.175,1.1739,1.1738,1.1733,1.1716,1.1716,1.1708,1.1696,1.1692,1.1684,1.168,1.1672,1.1667,1.1661,1.1646,1.1639,1.1644,1.1631,1.1638,1.1638,1.1639,1.1639,1.1668,1.1637,1.1637,1.1637,1.1637,0,1.1768,1.1769,1.1749,1.1748,1.1748,1.1732,1.1733,1.1724,1.1714,1.1711,1.1695,1.1693,1.1674,1.1669,1.1658,1.1657,1.1654,1.1648,1.1645,1.165,1.165,1.1646,1.1645,1.1638,1.1638,1.1638,1.1638,0,1.1794,1.178,1.1778,1.1762,1.1758,1.1759,1.1745,1.1744,1.1734,1.1731,1.1729,1.1712,1.1706,1.1691,1.1681,1.1674,1.1676,1.167,1.168,1.1678,1.1685,1.1685,1.1712,1.1715,1.1683,1.1684,1.1684,0,1.1806,1.1806,1.1791,1.1788,1.1782,1.1778,1.1773,1.1758,1.1754,1.1742,1.1742,1.1735,1.1729,1.172,1.1707,1.17,1.1694,1.1704,1.1692,1.1697,1.1694,1.1694,1.1694,1.1706,1.1707,1.1707,1.1707,0,1.1829,1.1823,1.1817,1.181,1.1806,1.1799,1.1791,1.179,1.1772,1.1769,1.1763,1.1759,1.1749,1.1743,1.1733,1.1726,1.1714,1.1711,1.1713,1.1717,1.1722,1.1719,1.1686,1.171,1.171,1.171,1.171,1.171,1.1848,1.1848,1.1837,1.1832,1.1825,1.1819,1.1817,1.1807,1.1802,1.1794,1.1785,1.178,1.177,1.1756,1.175,1.1746,1.174,1.1741,1.1742,1.1742,1.1744,1.1724,1.1744,1.1744,1.1744,1.1744,1.1744,0,1.187,1.1863,1.1859,1.1849,1.1845,1.1835,1.1827,1.1824,1.1821,1.1812,1.1807,1.1801,1.1795,1.1782,1.1775,1.1774,1.1769,1.1773,1.1772,1.1771,1.175,1.175,1.1777,1.1777,1.1777,1.1777,1.1777,1.1777,1.1881,1.1881,1.1873,1.1869,1.1862,1.1858,1.1854,1.1848,1.1841,1.1836,1.1831,1.1823,1.1813,1.1805,1.1799,1.1796,1.1794,1.18,1.1794,1.1775,1.1772,1.1769,1.1769,1.18,1.18,1.1815,1.1815,1.1815]},{"header":{"parameterUnit":"m.s-1","parameterCategory":1,"la1":30.2991,"la2":30.254,"lo1":-89.0895,"lo2":-89.0444,"dy":0.0017,"dx":0.0017,"nx":28,"ny":28,"refTime":"2025-01-07T03:00:00:Z","depth":0,"parameterNumber":3,"parameterNumberName":"V-component_of_WINDS"},"data":[0,0,0,0,0,0,0,0,0,0,0,0,0,0,0,0,0,0,0,0,0,0,0,0,0,0,0,0,0,0,0,0,0,0,0,0,0,0,0,0,0,0,0,0,0,0,0,0,0,0,0,0,0,0,0,0,0,0,-4.5599,-4.56,0,-4.5681,-4.5682,-4.5683,-4.5685,-4.5684,-4.5683,-4.5682,-4.5761,-4.5764,-4.5767,0,0,0,0,0,0,0,0,0,0,0,0,0,-4.544,-4.5443,-4.5599,-4.56,-4.5601,-4.5681,-4.5682,-4.5684,-4.5686,-4.5684,-4.5683,-4.5682,-4.576,-4.5764,-4.5767,0,0,0,0,0,0,0,0,0,0,0,0,0,-4.5514,-4.5444,-4.5599,-4.5612,-4.5614,-4.5681,-4.5682,-4.5684,-4.5686,-4.5684,-4.5683,-4.5681,-4.5759,-4.5763,-4.5768,-4.5826,0,0,-4.5782,-4.5784,0,0,0,0,0,0,0,0,-4.551,-4.552,-4.5609,-4.5611,-4.5614,-4.5672,-4.5655,-4.5731,-4.5686,-4.5658,-4.5682,-4.5681,-4.5732,-4.5739,-4.5757,-4.5829,-4.5833,-4.5782,-4.5785,-4.5787,-4.5788,0,0,0,0,0,0,0,-4.5505,-4.5516,-4.5632,-4.561,-4.5613,-4.5613,-4.5621,-4.567,-4.5702,-4.5661,-4.5661,-4.5671,-4.5733,-4.5753,-4.5759,-4.5834,-4.5782,-4.5786,-4.5789,-4.5791,-4.5959,-4.5961,0,0,0,0,0,0,-4.5498,-4.5512,-4.5629,-4.5634,-4.5557,-4.5617,-4.5627,-4.5655,-4.5702,-4.5708,-4.5672,-4.5671,-4.5746,-4.5754,-4.5762,-4.5834,-4.5787,-4.5791,-4.5794,-4.5957,-4.5959,-4.5961,0,0,0,0,0,0,-4.5494,-4.5508,-4.5626,-4.5573,-4.5588,-4.5621,-4.5652,-4.5657,-4.5677,-4.5711,-4.5716,-4.5687,-4.5745,-4.5756,-4.5811,-4.5837,-4.5793,-4.5797,-4.5955,-4.5958,-4.596,-4.5978,0,0,0,0,0,0,-4.549,-4.5507,-4.553,-4.5574,-4.5591,-4.5674,-4.5654,-4.566,-4.5685,-4.5684,-4.5726,-4.5731,-4.5745,-4.5804,-4.5815,-4.5842,-4.5801,-4.5953,-4.5956,-4.596,-4.5975,-4.5981,-4.5986,0,0,0,0,0,-4.5484,-4.553,-4.5531,-4.5545,-4.5621,-4.5676,-4.5685,-4.5701,-4.5687,-4.5711,-4.5733,-4.573,-4.5832,-4.581,-4.5822,-4.5851,-4.5951,-4.5956,-4.5959,-4.5973,-4.598,-4.5986,0,0,0,0,0,0,-4.5486,-4.5536,-4.5538,-4.56,-4.5634,-4.5676,-4.5705,-4.5708,-4.5745,-4.5742,-4.5759,-4.5768,-4.5823,-4.5843,-4.5816,-4.591,-4.589,-4.5897,-4.5896,-4.5903,-4.5908,-4.5902,-4.5805,0,0,0,0,0,-4.5494,-4.5536,-4.5577,-4.5627,-4.5645,-4.5672,-4.5696,-4.5706,-4.5741,-4.5755,-4.5781,-4.5814,-4.5854,-4.5879,-4.5917,-4.5978,-4.5987,-4.6004,-4.6009,-4.6014,-4.6019,-4.6054,-4.6062,-4.5974,-4.5974,-4.5974,0,0,-4.551,-4.5543,-4.5568,-4.5629,-4.5656,-4.5698,-4.5684,-4.5728,-4.576,-4.5761,-4.5816,-4.5836,-4.5874,-4.5932,-4.5959,-4.595,-4.6046,-4.6019,-4.6022,-4.6025,-4.6059,-4.6067,-4.6074,-4.5977,-4.5977,-4.5976,0,0,-4.5562,-4.559,-4.5637,-4.5665,-4.5708,-4.5727,-4.5738,-4.578,-4.5795,-4.585,-4.5853,-4.5889,-4.5956,-4.5984,-4.6006,-4.607,-4.607,-4.6082,-4.611,-4.6143,-4.615,-4.6156,-4.618,-4.6188,-4.6088,-4.6088,-4.6088,0,-4.5576,-4.5641,-4.5659,-4.5705,-4.5732,-4.5738,-4.5785,-4.5811,-4.5863,-4.5881,-4.587,-4.5957,-4.5982,-4.6048,-4.6064,-4.6082,-4.6095,-4.6077,-4.6148,-4.6154,-4.616,-4.6183,-4.6192,-4.6089,-4.6089,-4.6089,-4.6089,0,-4.5657,-4.5702,-4.5734,-4.5787,-4.5817,-4.5863,-4.5888,-4.5916,-4.5924,-4.5943,-4.5999,-4.6031,-4.6076,-4.6092,-4.6099,-4.6159,-4.6153,-4.6145,-4.6125,-4.617,-4.6192,-4.62,-4.6091,-4.609,-4.609,-4.609,0,0,-4.571,-4.5776,-4.5787,-4.5812,-4.586,-4.5895,-4.5941,-4.5988,-4.6012,-4.6048,-4.6087,-4.6145,-4.6139,-4.6165,-4.6174,-4.6204,-4.6254,-4.6193,-4.6194,-4.6203,-4.6323,-4.6329,-4.6339,-4.6254,-4.6255,-4.6257,-4.632,0,-4.5768,-4.5852,-4.5871,-4.5943,-4.5985,-4.5992,-4.6032,-4.6066,-4.6086,-4.6123,-4.6144,-4.6185,-4.6174,-4.619,-4.6219,-4.6242,-4.6278,-4.6237,-4.6289,-4.6291,-4.628,-4.635,-4.6356,-4.6415,-4.6329,-4.633,-4.6331,0,-4.5845,-4.5886,-4.5963,-4.6008,-4.6027,-4.6063,-4.6108,-4.6144,-4.6182,-4.6194,-4.6224,-4.6232,-4.6279,-4.6257,-4.6322,-4.6294,-4.6317,-4.6331,-4.6334,-4.6339,-4.6314,-4.6358,-4.6434,-4.6443,-4.6345,-4.6343,-4.6343,0,-4.5878,-4.5952,-4.6008,-4.6029,-4.6083,-4.6108,-4.6131,-4.6168,-4.6196,-4.6234,-4.6253,-4.6295,-4.6319,-4.6352,-4.637,-4.6352,-4.6434,-4.6413,-4.6445,-4.6445,-4.6462,-4.6461,-4.6543,-4.6476,-4.6476,-4.6476,-4.6475,0,-4.594,-4.5987,-4.6024,-4.6059,-4.6112,-4.6133,-4.6184,-4.6207,-4.624,-4.6278,-4.6286,-4.6321,-4.6344,-4.6382,-4.6396,-4.6449,-4.6459,-4.647,-4.6473,-4.6469,-4.6468,-4.6484,-4.6481,-4.6478,-4.6477,-4.6477,-4.6477,0,-4.5985,-4.6012,-4.6074,-4.6121,-4.6134,-4.6171,-4.621,-4.6243,-4.6264,-4.6312,-4.6325,-4.6356,-4.6402,-4.6424,-4.6479,-4.6489,-4.6549,-4.6549,-4.6537,-4.6538,-4.6569,-4.6566,-4.6665,-4.6679,-4.6602,-4.6603,-4.6604,0,-4.6023,-4.606,-4.6112,-4.614,-4.6164,-4.6208,-4.6237,-4.6259,-4.6288,-4.6336,-4.6364,-4.641,-4.6449,-4.6522,-4.6548,-4.6591,-4.6593,-4.6625,-4.6599,-4.6595,-4.6594,-4.6592,-4.6596,-4.6629,-4.663,-4.6631,-4.6631,0,-4.6089,-4.6101,-4.6143,-4.6191,-4.6226,-4.6264,-4.6301,-4.6323,-4.6351,-4.6384,-4.6432,-4.6462,-4.6521,-4.6567,-4.6613,-4.6635,-4.6638,-4.6639,-4.6649,-4.6646,-4.6637,-4.6643,-4.655,-4.6637,-4.6636,-4.6636,-4.6635,-4.6635,-4.6132,-4.6166,-4.6208,-4.6256,-4.6287,-4.6322,-4.6357,-4.6382,-4.6424,-4.6475,-4.6485,-4.6537,-4.6575,-4.6636,-4.666,-4.67,-4.6693,-4.6706,-4.671,-4.6713,-4.6716,-4.6631,-4.6708,-4.6708,-4.6708,-4.6708,-4.6708,0,-4.6198,-4.6227,-4.627,-4.6324,-4.6361,-4.6363,-4.6405,-4.6436,-4.6482,-4.6518,-4.6557,-4.6613,-4.6658,-4.669,-4.6735,-4.6761,-4.6764,-4.6772,-4.6771,-4.6776,-4.6719,-4.6707,-4.677,-4.677,-4.677,-4.677,-4.677,-4.677,-4.6237,-4.6295,-4.6313,-4.6386,-4.6413,-4.6466,-4.649,-4.6522,-4.6551,-4.6615,-4.6653,-4.6674,-4.6709,-4.6757,-4.6799,-4.6807,-4.6823,-4.6833,-4.684,-4.6786,-4.678,-4.6774,-4.6762,-4.6836,-4.6836,-4.6894,-4.6895,-4.6895]}]]